CW7364 Weather Reports


Display with metric or nautical units.
time (UTC)temp
F
wind
direction
speed
MPH
gust
MPH
rain 1hr
in
rain 24hr
in
rain mn
in
humidity
%
barometer
mb
20260902023516 86 113 1.0 2.0 0.00 0.00 0.00 56 1013.4
20260902022515 87 0.0 0.0 0.00 0.00 0.00 55 1013.2
20260902021515 88 0.0 0.0 0.00 0.00 0.00 54 1013.0
20260902020515 88 0.0 0.0 0.00 0.00 0.00 53 1012.8
20260902015515 88 0.0 1.0 0.00 0.00 0.00 53 1012.6
20260902014517 89 0.0 1.0 0.00 0.00 0.00 52 1012.4
20260902013517 89 113 1.0 3.0 0.00 0.00 0.00 51 1012.2
20260902012517 90 90 2.0 4.0 0.00 0.00 0.00 50 1012.0
20260902011517 91 113 3.0 4.0 0.00 0.00 0.00 49 1011.9
20260902010517 92 113 3.0 6.0 0.00 0.00 0.00 48 1012.0
20260902005517 93 113 3.0 6.0 0.00 0.00 0.00 47 1011.7
20260902004517 93 113 5.0 8.0 0.00 0.00 0.00 46 1011.8
20260902003517 94 135 4.0 8.0 0.00 0.00 0.00 45 1011.9
20260902002517 95 135 6.0 8.0 0.00 0.00 0.00 44 1012.0
20260902001517 96 135 6.0 11.0 0.00 0.00 0.00 43 1012.2
20260902000517 96 113 7.0 12.0 0.00 0.00 0.00 42 1012.2
20260901235517 96 135 7.0 11.0 0.00 0.00 0.00 42 1012.2
20260901234537 97 135 7.0 14.0 0.00 0.00 0.00 42 1012.3
20260901233517 97 113 7.0 10.0 0.00 0.00 0.00 41 1012.4
20260901232516 97 135 7.0 12.0 0.00 0.00 0.00 41 1012.4
20260901231537 98 135 7.0 13.0 0.00 0.00 0.00 41 1012.5
20260901230516 98 113 8.0 12.0 0.00 0.00 0.00 41 1012.6
20260901225537 98 135 9.0 14.0 0.00 0.00 0.00 41 1012.6
20260901224517 98 158 6.0 9.0 0.00 0.00 0.00 41 1012.5
20260901223516 98 135 7.0 10.0 0.00 0.00 0.00 41 1012.5
20260901222517 99 135 10.0 14.0 0.00 0.00 0.00 40 1012.6
20260901221516 99 135 5.0 10.0 0.00 0.00 0.00 40 1012.7
20260901220517 99 135 9.0 12.0 0.00 0.00 0.00 40 1012.8
20260901215516 99 135 5.0 11.0 0.00 0.00 0.00 39 1012.8
20260901214516 98 135 8.0 14.0 0.00 0.00 0.00 41 1012.8
20260901213537 99 135 10.0 16.0 0.00 0.00 0.00 41 1012.8
20260901212516 98 90 6.0 12.0 0.00 0.00 0.00 41 1012.9
20260901211516 97 135 8.0 11.0 0.00 0.00 0.00 43 1013.0
20260901210516 98 113 11.0 16.0 0.00 0.00 0.00 42 1013.2
20260901205516 97 90 8.0 13.0 0.00 0.00 0.00 44 1013.1
20260901204516 98 90 10.0 15.0 0.00 0.00 0.00 43 1013.3
20260901203516 99 135 9.0 19.0 0.00 0.00 0.00 42 1013.4
20260901202516 99 113 7.0 13.0 0.00 0.00 0.00 42 1013.5
20260901201516 99 135 10.0 16.0 0.00 0.00 0.00 41 1013.7
20260901200537 99 90 8.0 14.0 0.00 0.00 0.00 42 1013.7
20260901195516 100 135 8.0 14.0 0.00 0.00 0.00 41 1013.9
20260901194516 100 180 7.0 12.0 0.00 0.00 0.00 41 1014.0
20260901193516 99 113 3.0 11.0 0.00 0.00 0.00 41 1014.0
20260901192516 99 135 5.0 12.0 0.00 0.00 0.00 41 1014.2
20260901191516 98 203 4.0 8.0 0.00 0.00 0.00 42 1014.2
20260901190516 98 135 3.0 7.0 0.00 0.00 0.00 44 1014.5
20260901185516 98 158 6.0 14.0 0.00 0.00 0.00 43 1014.6
20260901184516 97 135 8.0 12.0 0.00 0.00 0.00 45 1014.7
20260901183516 98 180 6.0 11.0 0.00 0.00 0.00 45 1015.0
20260901182516 97 180 6.0 11.0 0.00 0.00 0.00 45 1015.0
20260901181516 96 135 7.0 14.0 0.00 0.00 0.00 47 1015.3
20260901180535 96 135 6.0 13.0 0.00 0.00 0.00 47 1015.4
20260901175516 95 135 3.0 10.0 0.00 0.00 0.00 49 1015.5
20260901174516 97 158 6.0 10.0 0.00 0.00 0.00 46 1015.7
20260901173516 97 135 9.0 15.0 0.00 0.00 0.00 46 1015.8
20260901172556 96 135 3.0 11.0 0.00 0.00 0.00 48 1015.9
20260901171535 96 135 5.0 11.0 0.00 0.00 0.00 47 1016.1
20260901170536 96 113 8.0 11.0 0.00 0.00 0.00 47 1016.2
20260901165515 96 225 3.0 9.0 0.00 0.00 0.00 48 1016.3
20260901164516 96 180 2.0 7.0 0.00 0.00 0.00 49 1016.5
20260901163516 96 225 4.0 9.0 0.00 0.00 0.00 49 1016.5
20260901162515 96 180 2.0 6.0 0.00 0.00 0.00 50 1016.5
20260901161515 95 135 3.0 7.0 0.00 0.00 0.00 50 1016.6
20260901160517 94 270 3.0 8.0 0.00 0.00 0.00 52 1016.7
20260901155517 94 203 4.0 13.0 0.00 0.00 0.00 51 1016.7
20260901154517 94 203 4.0 7.0 0.00 0.00 0.00 52 1016.6
20260901153517 93 225 2.0 6.0 0.00 0.00 0.00 53 1016.5
20260901152517 92 225 3.0 5.0 0.00 0.00 0.00 55 1016.6
20260901151537 92 158 3.0 9.0 0.00 0.00 0.00 56 1016.6
20260901150557 92 180 3.0 8.0 0.00 0.00 0.00 56 1016.7
20260901145517 91 225 2.0 4.0 0.00 0.00 0.00 57 1016.6
20260901144517 90 135 3.0 6.0 0.00 0.00 0.00 58 1016.7
20260901143517 89 158 3.0 7.0 0.00 0.00 0.00 59 1016.7
20260901142517 88 225 1.0 2.0 0.00 0.00 0.00 60 1016.6
20260901141517 87 180 1.0 3.0 0.00 0.00 0.00 61 1016.6
20260901140517 86 180 1.0 3.0 0.00 0.00 0.00 62 1016.6
20260901135517 85 0.0 3.0 0.00 0.00 0.00 63 1016.6
20260901134537 84 0.0 2.0 0.00 0.00 0.00 64 1016.5
20260901133517 83 113 1.0 2.0 0.00 0.00 0.00 65 1016.6
20260901132517 81 135 2.0 3.0 0.00 0.00 0.00 66 1016.5
20260901131537 80 158 2.0 3.0 0.00 0.00 0.00 69 1016.5
20260901130537 78 0.0 0.0 0.00 0.00 0.00 72 1016.3
20260901125516 76 0.0 0.0 0.00 0.00 0.00 75 1016.2
20260901124517 75 0.0 0.0 0.00 0.00 0.00 77 1015.9
20260901123516 73 0.0 2.0 0.00 0.00 0.00 78 1015.8
20260901122516 73 0.0 0.0 0.00 0.00 0.00 76 1015.7
20260901121516 73 0.0 0.0 0.00 0.00 0.00 75 1015.4
20260901120516 75 0.0 0.0 0.00 0.00 0.00 73 1015.5
20260901115517 75 0.0 0.0 0.00 0.00 0.00 72 1015.6
20260901114516 75 0.0 0.0 0.00 0.00 0.00 72 1015.7
20260901113556 75 0.0 0.0 0.00 0.00 0.00 72 1015.6
20260901112536 75 0.0 0.0 0.00 0.00 0.00 71 1015.6
20260901111516 76 0.0 0.0 0.00 0.00 0.00 70 1015.6
20260901110516 76 0.0 0.0 0.00 0.00 0.00 70 1015.6
20260901105516 76 0.0 0.0 0.00 0.00 0.00 70 1015.7
20260901104516 77 0.0 0.0 0.00 0.00 0.00 69 1015.6
20260901103516 77 0.0 0.0 0.00 0.00 0.00 68 1015.6
20260901102536 77 0.0 0.0 0.00 0.00 0.00 68 1015.5
20260901101516 77 135 1.0 3.0 0.00 0.00 0.00 68 1015.6
20260901100516 77 135 1.0 3.0 0.00 0.00 0.00 67 1015.5
20260901095516 78 135 1.0 4.0 0.00 0.00 0.00 67 1015.5
20260901094516 77 135 2.0 4.0 0.00 0.00 0.00 66 1015.5
20260901093516 78 135 2.0 4.0 0.00 0.00 0.00 66 1015.4
20260901092516 77 135 3.0 4.0 0.00 0.00 0.00 66 1015.6
20260901091516 77 90 1.0 2.0 0.00 0.00 0.00 65 1015.5
20260901090536 78 0.0 2.0 0.00 0.00 0.00 64 1015.5
20260901085536 78 0.0 2.0 0.00 0.00 0.00 64 1015.4
20260901084516 78 0.0 1.0 0.00 0.00 0.00 63 1015.4
20260901083516 78 0.0 2.0 0.00 0.00 0.00 63 1015.4
20260901082515 78 0.0 1.0 0.00 0.00 0.00 63 1015.4
20260901081515 78 0.0 0.0 0.00 0.00 0.00 63 1015.3
20260901080516 78 0.0 0.0 0.00 0.00 0.00 62 1015.2
20260901075515 78 90 2.0 3.0 0.00 0.00 0.00 62 1015.2
20260901074516 78 90 2.0 3.0 0.00 0.00 0.00 62 1015.0
20260901073515 78 90 1.0 3.0 0.00 0.00 0.00 62 1015.1
20260901072516 78 90 2.0 4.0 0.00 0.00 0.00 62 1015.1
20260901071515 78 90 2.0 3.0 0.00 0.00 0.00 61 1015.1
20260901070536 77 90 2.0 4.0 0.00 0.00 0.00 62 1015.1
20260901065515 76 90 4.0 9.0 0.00 0.00 0.00 64 1015.0
20260901064515 76 0.0 0.0 0.00 0.00 0.00 63 1014.9
20260901063515 76 0.0 0.0 0.00 0.00 0.00 62 1014.8
20260901062515 77 0.0 0.0 0.00 0.00 0.00 61 1014.8
20260901061517 77 0.0 0.0 0.00 0.00 0.00 61 1014.8
20260901060517 78 0.0 0.0 0.00 0.00 0.00 60 1014.8
20260901055517 79 0.0 0.0 0.00 0.00 0.00 59 1014.8
20260901054537 79 0.0 0.0 0.00 0.00 0.00 59 1014.8
20260901053538 80 0.0 0.0 0.00 0.00 0.00 58 1014.7
20260901052532 80 0.0 0.0 0.00 0.00 0.00 58 1014.5
20260901051517 80 0.0 0.0 0.00 0.00 0.00 57 1014.4
20260901050517 81 0.0 0.0 0.00 0.00 0.00 56 1014.4
20260901045556 81 0.0 0.0 0.00 0.00 0.00 55 1014.4
20260901044515 82 0.0 0.0 0.00 0.00 0.00 54 1014.3
20260901043515 82 0.0 0.0 0.00 0.00 0.00 53 1014.3
20260901042515 83 0.0 0.0 0.00 0.00 0.00 53 1014.1
20260901041516 83 0.0 0.0 0.00 0.00 0.00 52 1014.2
20260901040515 83 0.0 0.0 0.00 0.00 0.00 52 1014.2
20260901035515 83 0.0 0.0 0.00 0.00 0.00 52 1014.2
20260901034515 84 0.0 0.0 0.00 0.00 0.00 52 1014.2
20260901033515 84 0.0 0.0 0.00 0.00 0.00 52 1014.2
20260901032515 84 0.0 0.0 0.00 0.00 0.00 51 1014.1
20260901031535 85 0.0 0.0 0.00 0.00 0.00 50 1014.0
20260901030515 85 0.0 0.0 0.00 0.00 0.00 49 1013.9
20260901025515 85 0.0 0.0 0.00 0.00 0.00 49 1013.8
20260901024515 86 0.0 0.0 0.00 0.00 0.00 49 1013.6